Tracking 19920 objects as of 15-Oct-2019
HD Live streaming from Space Station
objects crossing your sky now

INTELSAT 904

Track INTELSAT 904 now!
INTELSAT 904 is classified as:


NORAD ID: 27380
Int'l Code: 2002-007A
Perigee: 35,782.6 km
Apogee: 35,804.7 km
Inclination: 0.9 °
Period: 1,436.1 minutes
Semi major axis: 42164 km
RCS: 11.3214 m2 (large)
Launch date: February 23, 2002
Source: International Telecommunications Satellite Organization (ITSO)
Launch site: FRENCH GUIANA (FRGUI)

76 C-band, 22 Ku-band, broadcasting, business services, direct-to-home TV broadcasting, telecommunications, VSAT networks; Indian Ocean region.
aabbcc
Your satellite tracking list
Your tracking list is empty




NASA's NSSDC Master Catalog

Two Line Element Set (TLE):
1 27380U 02007A   19288.18402160 -.00000211  00000-0  00000+0 0  9993
2 27380   0.8770  95.7249 0002627 142.2879 182.1948  1.00272135 64655
Source of the keplerian elements: AFSPC